Regional Weather Roundup
Issued by NWS

Home | Current Version | Previous Version | Text Only | Print | Product List | Glossary Off
Versions: 1 2 3 4 5 6 7 8 9 10 11 12 13 14 15 16 17 18 19 20 21 22 23 24 25 26 27 28 29 30 31 32 33 34 35 36 37 38 39 40 41 42 43 44 45 46 47 48 49 50

983
ASUS43 KMPX 220810
RWRMN
WEATHER ROUNDUP FOR MINNESOTA
NATIONAL WEATHER SERVICE TWIN CITIES/CHANHASSEN MN
200 AM CST MON JAN 22 2018


NOTE: "FAIR" INDICATES FEW OR NO CLOUDS BELOW 12,000 FEET WITH NO
SIGNIFICANT WEATHER AND/OR OBSTRUCTIONS TO VISIBILITY. N/A MEANS
CURRENT SKY AND/OR WEATHER CONDITIONS ARE NOT AVAILABLE.

MNZ060>063-068>070-220900-
   Twin Cities Metro

CITY           SKY/WX    TMP DP  RH WIND       PRES   REMARKS
TWIN CITIES    CLOUDY    34  30  85 N15       29.89F WCI  24
ST PAUL        CLOUDY    34  29  82 N13       29.90F WCI  25
CRYSTAL        CLOUDY    32  26  78 NE10      29.90S WCI  24
BLAINE         FAIR      34  30  86 NE10G18   29.91S WCI  26
LAKEVILLE      FAIR      34  30  86 N14       29.85F WCI  24
EDEN PRAIRIE   CLOUDY    34  28  79 NE14G23   29.86F WCI  25
SOUTH ST PAUL  FAIR      35  29  78 N12G17    29.88F WCI  27
LAKE ELMO      FAIR      34  30  86 NE9       29.90F WCI  26
$$
MNZ001>005-007-008-013>017-022>024-027-028-220900-
   Northwest Minnesota

CITY           SKY/WX    TMP DP  RH WIND       PRES   REMARKS
BEMIDJI        CLOUDY    25  24  97 N7        30.01F WCI  17
HALLOCK        CLOUDY    21  19  93 CALM      30.11S
ROSEAU         CLOUDY    23  19  86 N5        30.10S WCI  17
WARROAD        CLOUDY    23  19  86 N5        30.09F FOG     WCI  17
THIEF RVR FALL CLOUDY    23  21  92 NE9       30.07F WCI  13
CROOKSTON      CLOUDY    25  23  93 NE6       30.09F WCI  18
FOSSTON        CLOUDY    21  21 100 NE8       30.03F WCI  12
DETROIT LAKES  CLOUDY    27  27 100 NE7       29.99F WCI  19
MOORHEAD       CLOUDY    25  21  86 NE12      30.03F WCI  14
PARK RAPIDS    CLOUDY    25  22  88 E8        29.98F WCI  16
MAHNOMEN       CLOUDY    24  24  96 NE9       30.01F WCI  15
$$
MNZ006-009>011-018-025>026-220900-
   North Central Minnesota

CITY           SKY/WX    TMP DP  RH WIND       PRES   REMARKS
BAUDETTE       CLOUDY    25  23  92 NE6       30.06F WCI  18
FLAG ISLAND    CLOUDY    19  19 100 N7        30.10S FOG     WCI  10
INTL FALLS     CLOUDY    22  20  92 NE6       30.07F WCI  14
WASKISH        CLOUDY    27  25  93 CALM      30.05F
BIG FORK       CLOUDY    27  25  93 NE5       30.02F FOG     WCI  21
LONGVILLE      CLOUDY    27  25  93 NE3       30.00S
GRAND RAPIDS   FLURRIES  26  25  96 CALM      30.02F
CRANE LAKE     CLOUDY    19  18  93 NE3       30.09F
ORR            CLOUDY    25  21  86 CALM      30.02F FOG
COOK           CLOUDY    25  25 100 NE6       30.04S FOG     WCI  18
WALKER         CLOUDY    25  24  96 NE5       29.99F FOG     WCI  19
$$
MNZ012-019>021-037-220900-
   Northeast Minnesota

CITY           SKY/WX    TMP DP  RH WIND       PRES   REMARKS
DULUTH         LGT SNOW  27  25  92 E14       30.01R VSB 3/4 WCI  16
ELY            CLOUDY    21  21 100 CALM      30.05S FOG
HIBBING        CLOUDY    26  24  92 E7        30.02S WCI  18
EVELETH        CLOUDY    25  21  86 E5        30.03S WCI  19
DULUTH HARBOR  CLOUDY    30  28  93 NE28      30.06R WCI  16
TWO HARBORS    CLOUDY    28  25  86 NE13G20   30.03S HAZE    WCI  18
SILVER BAY     CLOUDY    25  25 100 NE8       30.05S WCI  16
G MARAIS ARPRT CLOUDY    16  10  79 N7        30.05S WCI   6
$$
MNZ029>031-032-039>041-046>048-054>057-064-220900-
   West Central Minnesota

CITY           SKY/WX    TMP DP  RH WIND       PRES   REMARKS
FERGUS FALLS   CLOUDY    25  25 100 E9        29.98F WCI  15
WHEATON        CLOUDY    27  23  86 N8        30.00S WCI  18
MORRIS         CLOUDY    27  25  93 N16       29.94F FOG     WCI  14
ALEXANDRIA     CLOUDY    25  24  96 NE12      29.95F FOG     WCI  14
ELBOW LAKE     CLOUDY    25  24  99 NE12      29.97F FOG     WCI  14
WADENA         CLOUDY    25  25 100 NE8       29.98R FOG     WCI  16
GLENWOOD       CLOUDY    25  25 100 NE17      29.95R FOG     WCI  11
APPLETON       MOCLDY    27  23  86 N15       29.94F WCI  15
BENSON         CLOUDY    27  23  86 NE9       29.96R WCI  17
ORTONVILLE     CLOUDY    27  23  86 N17       29.96S WCI  14
MADISON        CLOUDY    28  28 100 N15       29.94S WCI  17
WILLMAR        FAIR      28  25  86 NE12      29.93S WCI  18
$$
MNZ033>034-036-042>043-049>051-058-059-220900-
   Central Minnesota

CITY           SKY/WX    TMP DP  RH WIND       PRES   REMARKS
ST CLOUD       CLOUDY    29  28  96 NE8       29.94S WCI  21
SAUK CENTRE      N/A     26  24  95 NE14      29.95S FOG     WCI  14
PAYNESVILLE    MOCLDY    26  26  97 NE13      29.94R WCI  15
AITKIN         CLOUDY    27  25  93 NE6       29.99R WCI  20
PINE RIVER     CLOUDY    25  21  86 NE6       30.03R FOG     WCI  18
BRAINERD       CLOUDY    29  26  89 NE8       29.99R WCI  21
STAPLES        CLOUDY    25  25 100 NE7       29.99R FOG     WCI  17
LONG PRAIRIE   CLOUDY    27  25  93 N12G17    29.95S FOG     WCI  16
LITTLE FALLS   CLOUDY    28  23  80 N6        29.98R FOG     WCI  22
LITCHFIELD     FAIR      30  28  93 NE8       29.92F WCI  23
BUFFALO        CLOUDY    31  28  87 N12       29.92F WCI  22
MAPLE LAKE     CLOUDY    32  30  93 MISG      29.93S
HUTCHINSON     MIX PCPN  32  30  91 N13G21    29.89F WCI  23
$$
MNZ037-044-045-052-053-220900-
   East Central Minnesota

CITY           SKY/WX    TMP DP  RH WIND       PRES   REMARKS
PRINCETON      CLOUDY    30  28  93 NE10      29.95S WCI  21
MORA           CLOUDY    30  28  93 NE9       29.99R WCI  22
CAMBRIDGE      CLOUDY    32  28  86 N7        29.95S WCI  26
RUSH CITY      CLOUDY    31  28  90 NE9       29.96S WCI  23
MOOSE LAKE     CLOUDY    30  28  93 NE9G21    30.00R WCI  22
HINCKLEY       CLOUDY    32  30  93 NE9       29.99R WCI  24
CLOQUET        LGT SNOW  28  27  93 E22G29    30.00S WCI  15
MCGREGOR       CLOUDY    30  27  86 E10G20    30.00R WCI  21
$$
MNZ071>073-080-081-089-090-097-098-220900-
   Southwest Minnesota

CITY           SKY/WX    TMP DP  RH WIND       PRES   REMARKS
MONTEVIDEO     CLOUDY    28  27  93 NE9G16    29.93S WCI  20
GRANITE FALLS  CLOUDY    32  29  87 N12       29.91F WCI  23
CANBY          CLOUDY    28  27  95 NW14G20   29.92S WCI  17
MARSHALL       LGT SNOW  29  28  96 N15       29.88F FOG     WCI  18
REDWOOD FALLS  CLOUDY    32  28  85 N16G28    29.83F WCI  21
OLIVIA         LGT RAIN  32  28  86 NE14      29.87F WCI  22
PIPESTONE        N/A     28  27  93 NE21      29.81S WCI  15
WINDOM         CLOUDY    34  18  51 N15       29.81R WCI  24
JACKSON        CLOUDY    32  30  93 N16G22    29.78S WCI  21
TRACY          CLOUDY    32  31  94 N16G24    29.83R WCI  21
SLAYTON        LGT SNOW  30  29  94 N15G23    29.82R WCI  19
$$
MNZ065>067-074>077-082>085-091>093-220900-
   South Central Minnesota

CITY           SKY/WX    TMP DP  RH WIND       PRES   REMARKS
MANKATO        CLOUDY    35  29  78 NE20      29.79F WCI  24
NEW ULM        CLOUDY    34  27  75 NE17G24   29.81F WCI  23
ST JAMES       CLOUDY    34  28  80 N15       29.81S WCI  24
FAIRMONT       LGT RAIN  35  30  82 N14       29.78F WCI  26
FARIBAULT      CLOUDY    36  30  80 N15       29.81F
OWATONNA       CLOUDY    36  30  80 NE22G28   29.75F
WASECA         CLOUDY    36  32  87 NE22G30   29.77F
ALBERT LEA     HVY RAIN  36  30  80 NE13G18   29.75R
$$
MNZ078>079-086>088-094>096-220900-
   Southeast Minnesota

CITY           SKY/WX    TMP DP  RH WIND       PRES   REMARKS
ROCHESTER      CLOUDY    35  31  85 NE17      29.75F WCI  25
RED WING       CLOUDY    39  28  65 NE9G17    29.85F
STANTON        FAIR      37  31  82 NE14      29.82F
DODGE CENTER   CLOUDY    36  30  80 NE17G25   29.74F
WINONA         CLOUDY    37  32  81 NE6       29.80F
AUSTIN         CLOUDY    36  30  80 NE15G21   29.74F
PRESTON        CLOUDY    35  32  87 NE15G22   29.75F WCI  26
$$
ABBREVIATIONS USED IN REMARKS
   TC - TEMPERATURES IN CELSIUS
  WCI - WIND CHILL INDEX
   HX - HEAT INDEX
  VSB - VISIBILITY
$$




USA.gov is the U.S. government's official web portal to all federal, state and local government web resources and services.